Theta_e
309 309 309 309 309 309 309 309 309 309 310 310 310 310 310 310 309 309 313 314 314 313 314 314 315 315 315 314 316 311 311 313 315 315 313 312 312 311 310 314 312 314 313 313 317
310 310 310 310 309 309 309 309 310 311 312 312 312 312 311 311 310 315 316 315 314 312 314 314 314 314 311 315 315 311 310 312 312 313 315 314 313 313 312 310 310 311 310 314 317
311 311 311 311 311 311 311 311 313 314 315 315 315 314 313 311 314 315 313 314 313 311 314 315 315 314 315 314 316 314 313 313 315 313 314 314 312 312 312 313 310 310 309 312 315
313 313 312 312 312 314 315 315 316 317 317 317 317 315 313 311 310 313 312 311 310 312 315 314 313 313 314 314 313 317 315 314 315 314 313 314 313 312 313 313 311 309 308 309 310
315 314 314 313 314 315 317 318 318 319 320 319 318 316 311 314 312 315 313 312 311 312 314 313 313 312 313 312 312 314 313 313 313 311 311 312 311 311 311 310 308 307 308 306 304
316 315 314 314 315 317 318 319 321 321 321 320 317 314 312 312 315 315 314 311 311 313 313 313 312 311 312 312 312 312 312 311 311 311 311 312 311 312 311 310 309 308 305 305 305
316 316 315 315 316 318 319 320 322 322 321 319 313 311 316 311 314 316 313 312 313 313 312 313 313 313 312 313 311 312 312 310 310 311 311 309 313 312 310 308 309 307 305 305 304
316 316 315 316 318 319 320 321 322 322 318 313 310 313 310 311 314 315 315 314 314 314 313 313 313 312 313 311 310 311 311 311 311 311 312 311 312 311 309 308 308 304 304 303 302
316 316 316 317 318 320 321 322 323 321 313 312 315 315 312 309 311 312 313 312 312 312 312 312 312 311 311 310 310 310 311 310 311 312 312 311 311 310 309 309 309 304 303 302 300
316 316 317 318 319 320 321 322 319 315 316 315 316 313 311 309 310 310 311 312 311 310 310 311 308 309 307 308 312 312 311 310 312 313 312 311 310 309 309 308 305 303 301 300 299
317 317 318 319 320 320 321 320 316 317 317 316 313 311 310 310 309 310 310 311 311 310 310 310 308 309 308 308 309 310 310 310 311 311 311 311 310 307 305 304 304 302 300 300 299
317 318 318 319 319 320 320 317 315 316 320 317 315 313 313 311 313 310 310 309 310 310 310 310 310 309 309 309 309 310 311 311 310 310 311 310 309 306 304 303 302 301 300 299 298
319 318 319 320 321 320 321 317 316 315 317 317 316 318 315 313 317 315 308 308 310 310 310 311 312 311 310 312 314 313 313 312 313 310 308 309 309 307 305 303 301 300 299 298 298
321 321 321 321 321 322 318 317 317 314 318 319 317 313 309 311 315 308 308 309 310 311 309 310 310 311 312 313 313 314 312 312 312 310 311 309 315 307 307 304 302 300 298 297 296
322 322 323 323 322 320 318 317 316 312 328 317 312 307 307 313 309 308 307 309 312 312 311 315 312 311 313 312 310 313 310 310 310 309 310 310 310 308 306 306 303 300 299 297 296
322 323 323 321 321 321 316 317 314 322 328 313 309 309 308 307 308 307 308 307 308 310 310 311 308 309 310 309 309 308 310 310 308 308 312 310 311 312 308 308 303 301 298 296 295
323 322 323 322 321 321 316 319 323 328 319 314 310 309 309 308 308 308 308 308 309 311 312 311 310 309 309 310 309 308 311 316 314 313 317 312 311 313 307 305 303 299 296 294 293
323 322 322 321 320 320 319 323 325 323 321 315 311 310 311 309 309 308 309 310 308 312 313 316 318 309 308 310 313 308 311 312 309 315 315 311 314 311 302 300 298 296 294 293 292
323 318 317 319 319 317 322 326 324 321 319 321 318 316 314 318 313 310 309 311 311 309 316 316 318 309 309 309 311 312 313 311 311 302 308 313 310 306 300 298 296 295 294 293 292
318 315 314 318 318 318 323 325 321 318 317 319 321 320 321 321 320 313 312 312 314 311 312 315 318 312 310 309 307 310 308 313 309 306 311 312 313 312 303 299 297 296 294 292 292
315 315 313 317 317 317 322 320 320 316 315 318 320 320 317 316 319 315 317 315 310 310 311 312 314 313 311 311 311 308 310 309 309 306 309 308 310 308 306 300 298 297 295 293 291
309 317 311 314 316 316 317 316 314 315 313 314 315 318 318 316 316 316 316 314 310 308 313 312 309 307 312 309 309 310 309 308 308 307 312 311 311 302 304 300 299 298 296 293 290
309 308 308 312 318 316 313 315 314 312 314 315 314 314 313 315 318 313 311 309 311 311 313 312 308 302 306 306 308 311 310 310 309 307 305 307 307 300 300 299 298 297 295 293 289
306 309 307 309 309 313 313 313 314 312 311 311 312 311 312 313 312 312 312 310 306 310 309 310 307 307 312 304 307 308 308 308 307 302 310 307 308 302 300 299 298 296 293 291 289
303 305 306 308 311 310 310 310 312 311 310 311 309 310 311 312 311 311 310 307 304 306 304 308 307 304 305 306 306 305 305 305 305 304 302 302 303 302 300 297 295 294 289 287 287
301 303 301 303 307 310 310 310 309 309 309 308 310 309 308 310 309 306 306 306 307 302 303 301 299 299 295 301 303 303 302 302 303 303 301 302 301 298 293 291 291 290 288 287 287
296 296 301 302 302 308 308 308 307 307 303 305 308 306 307 307 303 300 300 301 301 302 302 301 297 293 296 294 293 293 294 297 297 297 297 296 297 292 292 289 288 287 287 287 287
Wind_Speed
2 2 3 3 3 4 5 5 6 7 8 9 9 10 12 13 15 12 5 1 0 3 3 6 3 3 3 3 3 3 4 1 3 2 5 5 5 5 5 3 2 3 4 4 3
3 3 3 4 4 5 5 6 6 7 8 9 10 11 12 14 15 7 2 3 3 3 7 6 2 2 3 1 2 4 4 6 4 4 3 3 1 4 3 8 5 4 6 2 8
4 5 5 5 5 5 6 6 7 8 9 10 10 10 11 11 4 2 1 4 5 7 5 5 3 4 1 1 3 4 5 4 5 5 3 4 5 4 3 6 8 11 4 2 6
6 6 6 5 5 6 7 6 8 9 11 11 11 9 9 5 3 3 3 4 7 12 5 4 2 4 3 4 4 2 7 5 5 2 4 2 5 7 4 10 8 9 5 5 5
7 7 7 6 6 6 7 7 8 10 12 12 10 8 4 1 7 4 3 4 8 13 6 4 4 4 4 3 1 4 4 4 5 8 6 2 7 6 11 14 10 10 5 8 8
9 8 8 7 7 7 8 9 11 13 14 13 9 5 2 4 3 4 3 6 8 11 5 5 5 5 3 3 3 2 3 7 7 9 5 6 3 3 8 2 10 6 14 13 13
10 10 9 8 8 8 9 10 11 13 13 11 8 3 1 10 4 2 3 4 6 5 3 3 3 3 2 1 4 2 5 8 8 2 4 6 1 7 11 6 8 8 10 11 14
11 10 10 9 9 8 10 11 13 15 11 8 4 5 6 3 5 5 5 3 5 5 3 2 3 4 3 1 6 3 2 3 4 2 1 3 7 8 8 4 9 11 8 11 14
12 10 10 9 9 9 11 12 15 12 5 0 1 2 7 2 4 5 5 3 5 5 4 4 2 3 3 5 4 2 3 5 7 3 3 3 6 9 11 2 9 8 8 9 10
13 11 10 10 9 10 12 13 11 4 2 2 1 1 3 4 4 4 5 10 3 4 4 3 4 3 3 4 5 5 4 4 5 3 1 5 8 11 11 10 5 8 8 10 12
15 12 11 10 10 11 12 4 3 1 3 8 5 3 2 3 5 2 4 7 4 4 4 1 4 7 12 10 4 3 3 6 5 6 3 5 6 8 10 9 10 9 10 11 13
16 13 11 9 9 11 8 2 3 0 6 11 11 6 5 7 2 3 7 5 4 5 5 4 6 13 3 5 7 5 6 7 6 5 1 5 8 6 12 7 8 9 9 9 9
17 14 12 8 11 10 9 6 3 1 2 7 5 3 3 8 6 6 10 4 4 6 7 8 7 4 7 5 5 5 6 5 7 3 3 2 5 2 4 7 10 10 8 8 8
20 16 13 9 6 5 5 10 5 3 3 5 4 3 3 5 3 1 9 5 3 10 6 6 6 6 5 6 6 6 4 7 2 2 3 3 4 4 3 4 6 7 7 7 7
22 19 17 16 3 4 3 10 8 2 5 2 2 2 2 5 6 1 2 2 6 6 6 7 4 4 6 8 9 8 3 5 3 3 2 3 2 5 6 3 4 5 7 7 6
26 23 21 19 19 7 10 11 4 2 8 3 3 5 4 2 2 2 2 2 1 2 2 5 1 4 6 2 5 4 3 5 4 3 1 7 6 4 5 6 7 6 5 6 7
29 27 28 27 9 21 15 6 2 6 2 5 4 4 4 5 3 5 5 5 5 4 4 1 5 1 2 3 2 4 5 3 3 2 5 4 3 3 6 4 16 15 8 7 6
28 29 34 27 18 29 13 3 9 7 7 3 5 4 6 7 4 6 4 3 6 2 3 4 4 8 4 6 7 6 7 5 6 3 4 4 5 2 4 9 12 10 9 7 7
25 25 8 25 25 28 7 8 6 6 6 9 3 4 5 4 4 3 6 5 6 9 7 5 5 1 1 1 5 4 4 2 6 2 2 4 2 2 4 6 7 9 7 7 7
21 12 6 18 23 18 5 9 5 4 4 3 8 6 7 5 6 7 8 4 4 8 2 4 2 1 1 2 3 3 5 3 3 1 5 4 4 4 9 10 8 7 8 8 7
16 4 9 20 18 3 9 7 5 4 4 5 5 3 5 5 6 5 5 2 5 4 5 4 3 3 2 4 6 1 1 3 3 4 5 2 5 0 13 15 13 11 11 8 8
7 4 15 20 3 1 3 4 4 6 2 3 3 6 7 7 6 6 9 7 4 7 6 1 4 3 6 1 2 1 5 5 4 5 5 1 8 5 12 15 14 11 9 8 7
3 2 4 6 7 7 3 5 3 4 6 7 8 6 5 6 3 7 5 1 3 6 9 7 1 2 7 4 1 3 3 3 4 3 6 5 6 3 6 7 7 7 7 7 7
2 4 2 2 2 6 6 5 5 7 5 3 3 5 5 7 5 5 6 1 3 1 5 4 4 7 11 4 3 4 3 4 4 3 2 6 4 2 5 8 6 5 7 8 8
1 4 2 3 5 7 7 5 11 6 5 13 7 13 8 6 6 7 3 1 3 2 3 3 6 3 2 3 3 5 6 8 8 6 6 7 9 13 11 8 8 7 7 7 6
3 2 2 0 2 11 11 9 10 9 7 6 10 10 9 14 8 7 7 5 5 2 2 2 3 3 2 4 5 6 13 9 10 13 11 14 20 11 5 4 3 6 8 7 6
3 1 3 5 4 6 6 12 11 9 3 2 12 6 8 11 4 3 3 4 6 7 6 5 5 3 5 3 4 8 9 16 11 8 9 11 14 2 5 6 7 7 7 7 6
Wind_Direction
346 353 350 345 340 333 333 335 336 338 338 336 334 330 327 324 322 313 268 244 221 182 156 148 132 87 48 16 21 88 60 256 249 17 297 327 6 328 295 328 351 266 183 273 236
304 311 314 312 312 316 322 324 324 328 329 328 327 325 325 325 323 294 248 197 215 227 171 155 136 106 34 354 18 93 123 226 210 174 273 279 253 304 354 319 293 253 294 292 169
285 295 302 311 313 317 316 322 326 328 326 323 322 320 319 324 334 246 200 198 211 190 183 162 122 133 134 148 199 165 193 217 253 212 210 279 289 196 163 288 247 274 257 219 224
291 294 296 299 298 310 319 322 326 326 320 318 319 316 311 320 285 179 162 159 169 177 176 174 142 138 178 214 194 166 246 229 272 322 325 270 311 313 216 248 256 277 263 270 244
282 287 290 291 290 303 311 316 315 318 316 314 314 309 301 322 252 217 234 203 185 183 183 158 155 166 191 213 315 215 268 265 268 283 261 289 250 248 265 267 289 307 321 5 24
276 279 280 280 284 294 306 314 317 321 318 311 305 290 166 234 233 234 229 197 192 186 188 176 191 194 205 234 185 193 293 276 273 264 256 252 296 152 275 269 315 330 53 49 44
268 271 271 273 278 287 299 305 310 317 316 310 301 229 237 242 229 209 183 187 187 188 175 185 228 159 112 299 317 337 323 317 273 264 227 172 141 232 253 318 296 27 80 63 44
261 264 265 268 277 288 299 303 307 313 309 317 270 163 241 236 201 226 208 189 187 200 162 129 122 126 157 118 2 330 26 335 285 150 143 107 257 272 275 276 285 82 63 57 46
254 255 258 267 279 291 296 301 303 302 287 334 139 173 264 178 203 194 194 178 135 118 112 134 115 150 73 97 1 343 233 212 308 252 125 174 245 261 291 19 300 101 71 62 46
250 247 253 263 280 295 297 307 304 289 210 205 266 343 252 221 168 163 159 145 119 96 44 58 50 102 53 106 220 205 219 249 246 272 105 245 250 270 289 304 65 99 79 66 54
248 245 248 259 276 297 307 325 317 322 207 200 195 228 141 143 148 163 147 135 100 76 158 206 115 204 207 201 174 195 212 239 259 264 271 264 278 3 6 36 89 82 78 70 60
241 240 243 258 285 295 291 237 228 179 300 244 243 256 212 174 150 215 167 143 144 190 126 56 224 232 187 173 215 235 241 247 260 244 263 288 306 43 36 46 70 90 76 71 71
238 235 238 253 279 275 225 220 189 196 245 285 217 199 190 171 208 213 160 158 164 184 192 173 221 174 176 208 204 221 214 231 232 331 286 346 294 62 46 69 77 64 73 65 65
234 231 230 241 270 221 220 205 184 171 285 254 226 233 115 129 221 83 186 156 204 200 187 227 241 192 178 223 176 267 212 216 194 82 238 48 280 206 166 85 70 80 62 58 55
233 231 228 214 230 202 213 168 160 132 285 208 167 123 143 164 139 229 123 86 189 194 130 238 204 171 194 224 163 221 151 152 160 171 42 307 122 269 135 166 130 87 83 74 53
230 230 231 216 223 216 171 158 145 95 245 205 133 166 132 187 163 107 124 27 186 196 211 233 239 180 205 139 175 133 57 36 46 100 274 211 164 246 193 190 146 127 114 103 97
230 230 224 215 214 205 170 144 134 216 308 196 192 169 183 171 184 161 163 178 165 132 229 227 228 253 162 124 44 101 80 316 338 348 233 148 144 261 316 142 153 144 137 125 119
236 229 226 205 198 182 154 166 215 179 204 156 145 134 183 156 209 183 137 219 221 153 122 185 282 168 190 195 181 177 160 165 210 214 248 299 244 276 47 98 120 129 136 134 128
226 205 188 200 188 177 163 205 216 189 183 154 100 159 217 215 157 146 196 210 222 174 181 177 267 120 142 164 136 182 176 189 101 38 44 228 76 94 106 116 130 140 145 155 156
182 169 203 182 179 182 209 201 211 216 123 114 175 172 180 199 164 178 187 201 213 193 186 220 244 346 171 121 48 153 161 78 11 230 251 278 253 204 189 178 174 172 177 185 167
158 161 185 173 180 156 212 213 192 165 128 150 194 166 197 162 188 208 213 241 183 150 147 154 148 249 128 195 189 58 214 82 133 144 193 260 254 4 183 177 179 196 200 180 171
140 184 172 166 152 168 184 192 183 142 13 183 195 201 195 185 181 219 216 218 165 156 157 4 122 181 199 354 338 298 212 166 158 242 241 174 261 333 168 174 183 198 190 179 173
96 77 198 222 191 192 181 239 185 163 165 188 201 192 172 171 175 221 211 312 320 191 160 178 198 17 343 343 22 203 200 141 113 108 213 174 258 59 137 163 202 189 182 171 164
130 138 321 223 113 182 174 195 202 201 187 136 217 153 168 198 215 214 183 151 12 59 27 105 172 176 227 191 144 169 179 179 141 139 178 231 292 160 221 203 217 207 179 174 177
315 162 147 213 196 161 165 167 212 200 210 190 203 207 179 205 195 210 125 125 10 51 59 157 203 132 206 141 173 213 182 194 198 193 193 253 227 243 207 227 245 224 163 169 180
154 172 83 151 196 190 175 196 204 209 171 213 222 189 191 219 190 186 142 187 188 122 128 356 201 101 307 251 244 269 261 184 218 237 244 253 264 261 147 155 166 189 162 161 179
166 81 113 165 168 202 214 210 212 169 231 240 215 154 199 223 128 64 74 111 153 155 167 144 133 94 259 13 46 304 236 220 221 200 209 223 243 131 178 172 175 157 153 175 197